Flag Weather past 2 weeks in Barrie, Ontario, Canada

Now
39 °F

Light rain. Overcast.


Feels Like: 35 °F
Forecast: 35 / 43 °F
Wind: 6 mph from Southeast

Location: Borden

Current Time: Oct 31, 2014 at 4:21:47 AM

Latest Report: Oct 31, 2014 at 4:00 AM


Visibility: 9 mi

Pressure: 29.97 "Hg

Humidity: 100%

Dew point: 39 °F

Location of BarrieLocation

Historic Weather in Barrie — Graph

°F

Barrie temperature yesterday

Maximum temperature yesterday: 45 °F (at 2:00 PM)
Minimum temperature yesterday: 37 °F (at 7:00 AM)
Average temperature yesterday: 40 °F

Past Weeks' High & Low Weather Summary

 TemperatureHumidityPressure
High66 °F (Oct 28, 1:00 PM)100% (Oct 16, 3:00 AM)30.32 "Hg (Oct 16, 3:00 AM)
Low25 °F (Oct 24, 6:00 AM)49% (Oct 25, 4:00 PM)29.43 "Hg (Oct 17, 5:03 PM)
Average46 °F88%29.88 "Hg
* Reported Oct 16 3:00 AM — Oct 31 3:00 AM, Barrie, Weather by CustomWeather, © 2014

Note: Actual official high and low records may vary slightly from our data, if they occured in-between our weather recording intervals... More about our weather records

Advertising

Barrie weather history for previous 24 hours

 ConditionsComfort  
Time TempWeatherWind HumidityBarometerVisibility
3:00 AM
Oct 31
39 °FLight rain. Mostly cloudy.3 mph100%29.98 "Hg9 mi
2:00 AM39 °FLight rain. Overcast.2 mph100%29.99 "Hg9 mi
1:59 AM39 °FLight rain. Overcast.2 mph100%29.97 "Hg9 mi
1:00 AM39 °FLight rain. Overcast.2 mph100%30.00 "Hg9 mi
12:54 AM39 °FLight rain. Overcast.No wind100%29.98 "Hg9 mi
12:00 AM39 °FOvercast.2 mph100%30.02 "Hg9 mi
11:00 PM
Oct 30
37 °FOvercast.2 mph100%30.03 "Hg9 mi
10:49 PM37 °FMostly cloudy.No wind100%30.01 "Hg9 mi
10:00 PM37 °FPassing clouds.No wind100%30.04 "Hg9 mi
9:00 PM39 °FMostly cloudy.3 mph100%30.05 "Hg9 mi
8:00 PM41 °FOvercast.No wind100%30.06 "Hg9 mi
7:00 PM41 °FOvercast.No wind100%30.06 "Hg9 mi
6:00 PM43 °FPartly sunny.No wind87%30.06 "Hg9 mi
5:58 PM43 °FPartly sunny.No wind87%30.03 "Hg9 mi
5:00 PM45 °FOvercast.No wind76%30.05 "Hg9 mi
4:02 PM45 °FOvercast.5 mph81%30.02 "Hg9 mi
3:00 PM45 °FOvercast.2 mph81%30.05 "Hg9 mi
2:00 PM45 °FOvercast.3 mph87%30.06 "Hg9 mi
1:02 PM43 °FPartly sunny.No wind87%30.06 "Hg9 mi
12:04 PM41 °FLight rain. Low clouds.No wind93%30.07 "Hg7 mi
12:00 PM41 °FLow clouds.2 mph93%30.09 "Hg8 mi
10:00 AM37 °FLight rain. Mostly cloudy.No wind100%30.09 "Hg9 mi
9:59 AM37 °FLight rain. Mostly cloudy.No wind100%30.07 "Hg9 mi
9:00 AM37 °FOvercast.No wind93%30.09 "Hg9 mi
8:51 AM37 °FOvercast.No wind93%30.06 "Hg9 mi
8:00 AM37 °FOvercast.No wind100%30.07 "Hg9 mi
7:48 AM37 °FOvercast.No wind100%30.04 "Hg9 mi
7:00 AM37 °FLow clouds.5 mph100%30.06 "Hg9 mi
6:03 AM39 °FOvercast.No wind100%30.03 "Hg9 mi
5:00 AM39 °FLight rain. Overcast.2 mph100%30.03 "Hg5 mi
4:55 AM39 °FLight rain. Overcast.6 mph100%30.01 "Hg4 mi
4:00 AM39 °FLight rain. Overcast.No wind100%30.02 "Hg5 mi
Weather by CustomWeather, © 2014

See weather overviewHow to use our weather pages